| time (UTC) | temp F | wind direction | speed MPH | gust MPH | rain 1hr in | rain 24hr in | rain mn in | humidity % | barometer mb |
| 20260504081845 | 42 | 290 | 0.0 | 0.0 | 0.00 | 0.00 | 0.00 | 84 | 1016.0 |
| 20260504081329 | 41 | 290 | 0.0 | 0.0 | 0.00 | 0.00 | 0.00 | 85 | 1016.1 |
| 20260504080836 | 41 | 290 | 0.0 | 0.0 | 0.00 | 0.00 | 0.00 | 85 | 1016.1 |
| 20260504080323 | 41 | 290 | 0.0 | 0.0 | 0.00 | 0.00 | 0.00 | 85 | 1016.1 |
| 20260504070320 | 41 | 290 | 0.0 | 0.0 | 0.00 | 0.00 | 0.00 | 83 | 1016.2 |
| 20260504050335 | 40 | 290 | 0.0 | 0.0 | 0.00 | 0.00 | 0.00 | 82 | 1016.5 |
| 20260504045832 | 40 | 290 | 0.0 | 0.0 | 0.00 | 0.00 | 0.00 | 82 | 1016.5 |
| 20260504045339 | 40 | 290 | 0.0 | 0.0 | 0.00 | 0.00 | 0.00 | 82 | 1016.4 |
| 20260504044826 | 41 | 290 | 0.0 | 0.0 | 0.00 | 0.00 | 0.00 | 81 | 1016.4 |
| 20260504044330 | 41 | 290 | 0.0 | 0.0 | 0.00 | 0.00 | 0.00 | 81 | 1016.4 |
| 20260504043856 | 41 | 290 | 0.0 | 0.0 | 0.00 | 0.00 | 0.00 | 80 | 1016.4 |
| 20260504043325 | 41 | 290 | 0.0 | 0.0 | 0.00 | 0.00 | 0.00 | 80 | 1016.4 |
| 20260504042831 | 41 | 290 | 0.0 | 0.0 | 0.00 | 0.00 | 0.00 | 79 | 1016.5 |
| 20260504042337 | 41 | 290 | 0.0 | 0.0 | 0.00 | 0.00 | 0.00 | 79 | 1016.4 |
| 20260504041823 | 42 | 290 | 0.0 | 0.0 | 0.00 | 0.00 | 0.00 | 78 | 1016.4 |
| 20260504041328 | 42 | 290 | 0.0 | 0.0 | 0.00 | 0.00 | 0.00 | 77 | 1016.4 |
| 20260504040834 | 42 | 290 | 0.0 | 0.0 | 0.00 | 0.00 | 0.00 | 77 | 1016.4 |
| 20260504040338 | 42 | 290 | 0.0 | 0.0 | 0.00 | 0.00 | 0.00 | 77 | 1016.2 |
| 20260504035833 | 42 | 290 | 0.0 | 0.0 | 0.00 | 0.00 | 0.00 | 76 | 1016.1 |
| 20260504035339 | 43 | 290 | 0.0 | 1.0 | 0.00 | 0.00 | 0.00 | 75 | 1016.1 |
| 20260504034826 | 43 | 290 | 0.0 | 1.0 | 0.00 | 0.00 | 0.00 | 75 | 1016.2 |
| 20260504034353 | 43 | 290 | 0.0 | 0.0 | 0.00 | 0.00 | 0.00 | 73 | 1016.1 |
| 20260504033857 | 43 | 290 | 0.0 | 0.0 | 0.00 | 0.00 | 0.00 | 73 | 1016.1 |
| 20260504033326 | 43 | 290 | 0.0 | 0.0 | 0.00 | 0.00 | 0.00 | 74 | 1016.1 |
| 20260504032832 | 43 | 290 | 0.0 | 0.0 | 0.00 | 0.00 | 0.00 | 73 | 1015.9 |
| 20260504032358 | 43 | 290 | 0.0 | 0.0 | 0.00 | 0.00 | 0.00 | 73 | 1016.0 |
| 20260504031822 | 43 | 290 | 0.0 | 0.0 | 0.00 | 0.00 | 0.00 | 72 | 1016.1 |
| 20260504031327 | 43 | 290 | 0.0 | 0.0 | 0.00 | 0.00 | 0.00 | 72 | 1016.1 |
| 20260504030832 | 43 | 290 | 0.0 | 0.0 | 0.00 | 0.00 | 0.00 | 71 | 1016.0 |
| 20260504030338 | 44 | 290 | 0.0 | 0.0 | 0.00 | 0.00 | 0.00 | 70 | 1016.1 |
| 20260504025835 | 44 | 290 | 0.0 | 0.0 | 0.00 | 0.00 | 0.00 | 70 | 1016.1 |
| 20260504025320 | 44 | 290 | 0.0 | 0.0 | 0.00 | 0.00 | 0.00 | 69 | 1016.0 |
| 20260504024827 | 44 | 290 | 0.0 | 0.0 | 0.00 | 0.00 | 0.00 | 69 | 1016.1 |
| 20260504024351 | 44 | 290 | 0.0 | 0.0 | 0.00 | 0.00 | 0.00 | 70 | 1016.0 |
| 20260504023836 | 44 | 290 | 0.0 | 0.0 | 0.00 | 0.00 | 0.00 | 68 | 1016.1 |
| 20260504023325 | 45 | 290 | 0.0 | 0.0 | 0.00 | 0.00 | 0.00 | 67 | 1016.1 |
| 20260504022830 | 45 | 290 | 0.0 | 0.0 | 0.00 | 0.00 | 0.00 | 67 | 1016.1 |
| 20260504022337 | 45 | 290 | 0.0 | 0.0 | 0.00 | 0.00 | 0.00 | 67 | 1016.1 |
| 20260504021822 | 45 | 290 | 0.0 | 0.0 | 0.00 | 0.00 | 0.00 | 69 | 1016.0 |
| 20260504021330 | 46 | 290 | 0.0 | 0.0 | 0.00 | 0.00 | 0.00 | 67 | 1015.9 |
| 20260504020836 | 46 | 290 | 0.0 | 0.0 | 0.00 | 0.00 | 0.00 | 66 | 1015.9 |
| 20260504020321 | 46 | 290 | 0.0 | 0.0 | 0.00 | 0.00 | 0.00 | 67 | 1015.9 |
| 20260504015837 | 46 | 290 | 0.0 | 0.0 | 0.00 | 0.00 | 0.00 | 68 | 1015.9 |
| 20260504015322 | 47 | 290 | 0.0 | 0.0 | 0.00 | 0.00 | 0.00 | 65 | 1015.9 |
| 20260504014826 | 47 | 290 | 0.0 | 0.0 | 0.00 | 0.00 | 0.00 | 65 | 1015.9 |
| 20260504014331 | 47 | 290 | 0.0 | 0.0 | 0.00 | 0.00 | 0.00 | 63 | 1015.9 |
| 20260504013840 | 48 | 290 | 0.0 | 0.0 | 0.00 | 0.00 | 0.00 | 63 | 1015.9 |
| 20260504013325 | 48 | 290 | 0.0 | 0.0 | 0.00 | 0.00 | 0.00 | 63 | 1015.8 |
| 20260504012850 | 49 | 290 | 0.0 | 0.0 | 0.00 | 0.00 | 0.00 | 62 | 1015.9 |
| 20260504012334 | 49 | 290 | 0.0 | 0.0 | 0.00 | 0.00 | 0.00 | 62 | 1015.7 |
| 20260504011821 | 49 | 290 | 0.0 | 0.0 | 0.00 | 0.00 | 0.00 | 60 | 1015.8 |
| 20260504011328 | 49 | 290 | 0.0 | 0.0 | 0.00 | 0.00 | 0.00 | 60 | 1015.6 |
| 20260504010833 | 50 | 290 | 0.0 | 0.0 | 0.00 | 0.00 | 0.00 | 57 | 1015.6 |
| 20260504010338 | 50 | 290 | 0.0 | 0.0 | 0.00 | 0.00 | 0.00 | 57 | 1015.5 |
| 20260504005836 | 51 | 290 | 0.0 | 0.0 | 0.00 | 0.00 | 0.00 | 58 | 1015.5 |
| 20260504005321 | 51 | 290 | 0.0 | 0.0 | 0.00 | 0.00 | 0.00 | 57 | 1015.4 |
| 20260504004847 | 51 | 290 | 0.0 | 0.0 | 0.00 | 0.00 | 0.00 | 54 | 1015.3 |
| 20260504004351 | 52 | 290 | 0.0 | 0.0 | 0.00 | 0.00 | 0.00 | 53 | 1015.3 |
| 20260504003853 | 52 | 290 | 0.0 | 0.0 | 0.00 | 0.00 | 0.00 | 53 | 1015.3 |
| 20260504003322 | 53 | 290 | 0.0 | 0.0 | 0.00 | 0.00 | 0.00 | 52 | 1015.3 |
| 20260504002828 | 53 | 290 | 0.0 | 0.0 | 0.00 | 0.00 | 0.00 | 51 | 1015.2 |
| 20260504002336 | 54 | 290 | 0.0 | 0.0 | 0.00 | 0.00 | 0.00 | 49 | 1015.1 |
| 20260504001821 | 54 | 290 | 0.0 | 0.0 | 0.00 | 0.00 | 0.00 | 48 | 1015.2 |
| 20260504001326 | 55 | 290 | 0.0 | 0.0 | 0.00 | 0.00 | 0.00 | 47 | 1015.1 |
| 20260504000833 | 55 | 290 | 0.0 | 0.0 | 0.00 | 0.00 | 0.00 | 47 | 1015.1 |
| 20260504000319 | 56 | 290 | 0.0 | 0.0 | 0.00 | 0.00 | 0.00 | 45 | 1014.9 |
| 20260503235835 | 57 | 290 | 0.0 | 0.0 | 0.00 | 0.00 | 0.00 | 42 | 1014.9 |
| 20260503235320 | 57 | 290 | 0.0 | 0.0 | 0.00 | 0.00 | 0.00 | 42 | 1014.9 |
| 20260503234826 | 58 | 290 | 0.0 | 4.0 | 0.00 | 0.00 | 0.00 | 41 | 1014.9 |
| 20260503234332 | 58 | 290 | 0.0 | 4.0 | 0.00 | 0.00 | 0.00 | 37 | 1014.9 |
| 20260503233822 | 58 | 294 | 1.0 | 3.0 | 0.00 | 0.00 | 0.00 | 37 | 1014.8 |
| 20260503233328 | 59 | 295 | 0.0 | 3.0 | 0.00 | 0.00 | 0.00 | 36 | 1014.8 |
| 20260503232832 | 59 | 295 | 1.0 | 4.0 | 0.00 | 0.00 | 0.00 | 37 | 1014.7 |
| 20260503232339 | 59 | 296 | 1.0 | 6.0 | 0.00 | 0.00 | 0.00 | 35 | 1014.7 |
| 20260503231825 | 59 | 319 | 1.0 | 5.0 | 0.00 | 0.00 | 0.00 | 36 | 1014.6 |
| 20260503231331 | 59 | 301 | 1.0 | 6.0 | 0.00 | 0.00 | 0.00 | 36 | 1014.5 |
| 20260503230857 | 60 | 298 | 3.0 | 6.0 | 0.00 | 0.00 | 0.00 | 36 | 1014.5 |
| 20260503230321 | 60 | 300 | 2.0 | 10.0 | 0.00 | 0.00 | 0.00 | 34 | 1014.5 |
| 20260503225836 | 60 | 329 | 4.0 | 11.0 | 0.00 | 0.00 | 0.00 | 33 | 1014.5 |
| 20260503225342 | 61 | 294 | 5.0 | 11.0 | 0.00 | 0.00 | 0.00 | 34 | 1014.5 |
| 20260503224828 | 61 | 313 | 2.0 | 11.0 | 0.00 | 0.00 | 0.00 | 33 | 1014.6 |
| 20260503224353 | 61 | 360 | 4.0 | 8.0 | 0.00 | 0.00 | 0.00 | 33 | 1014.6 |
| 20260503223857 | 61 | 295 | 0.0 | 10.0 | 0.00 | 0.00 | 0.00 | 34 | 1014.6 |
| 20260503223325 | 61 | 316 | 5.0 | 10.0 | 0.00 | 0.00 | 0.00 | 32 | 1014.6 |
| 20260503222833 | 61 | 321 | 2.0 | 8.0 | 0.00 | 0.00 | 0.00 | 34 | 1014.7 |
| 20260503222400 | 61 | 315 | 2.0 | 8.0 | 0.00 | 0.00 | 0.00 | 33 | 1014.7 |
| 20260503221824 | 61 | 298 | 3.0 | 11.0 | 0.00 | 0.00 | 0.00 | 33 | 1014.6 |
| 20260503221329 | 61 | 31 | 4.0 | 13.0 | 0.00 | 0.00 | 0.00 | 33 | 1014.7 |
| 20260503220836 | 61 | 295 | 5.0 | 13.0 | 0.00 | 0.00 | 0.00 | 33 | 1014.7 |
| 20260503220320 | 61 | 222 | 6.0 | 10.0 | 0.00 | 0.00 | 0.00 | 33 | 1014.7 |
| 20260503215857 | 61 | 294 | 2.0 | 12.0 | 0.00 | 0.00 | 0.00 | 34 | 1014.6 |
| 20260503215321 | 61 | 296 | 3.0 | 14.0 | 0.00 | 0.00 | 0.00 | 33 | 1014.8 |
| 20260503214848 | 61 | 268 | 3.0 | 12.0 | 0.00 | 0.00 | 0.00 | 35 | 1014.9 |
| 20260503214334 | 61 | 324 | 7.0 | 12.0 | 0.00 | 0.00 | 0.00 | 32 | 1014.8 |
| 20260503213839 | 61 | 228 | 3.0 | 10.0 | 0.00 | 0.00 | 0.00 | 34 | 1014.7 |
| 20260503213324 | 61 | 265 | 2.0 | 8.0 | 0.00 | 0.00 | 0.00 | 34 | 1014.7 |
| 20260503212833 | 61 | 261 | 4.0 | 10.0 | 0.00 | 0.00 | 0.00 | 33 | 1014.7 |
| 20260503212337 | 61 | 213 | 5.0 | 12.0 | 0.00 | 0.00 | 0.00 | 33 | 1014.7 |
| 20260503211824 | 61 | 28 | 4.0 | 12.0 | 0.00 | 0.00 | 0.00 | 32 | 1014.4 |
| 20260503210835 | 61 | 223 | 5.0 | 15.0 | 0.00 | 0.00 | 0.00 | 33 | 1014.7 |
| 20260503210321 | 61 | 257 | 4.0 | 11.0 | 0.00 | 0.00 | 0.00 | 32 | 1014.8 |
| 20260503205857 | 62 | 11 | 4.0 | 14.0 | 0.00 | 0.00 | 0.00 | 33 | 1014.7 |
| 20260503205321 | 62 | 261 | 7.0 | 15.0 | 0.00 | 0.00 | 0.00 | 31 | 1014.8 |
| 20260503204828 | 62 | 262 | 3.0 | 11.0 | 0.00 | 0.00 | 0.00 | 34 | 1014.6 |
| 20260503204335 | 62 | 360 | 2.0 | 12.0 | 0.00 | 0.00 | 0.00 | 32 | 1014.8 |
| 20260503203821 | 62 | 5 | 5.0 | 14.0 | 0.00 | 0.00 | 0.00 | 33 | 1014.9 |
| 20260503203330 | 62 | 253 | 6.0 | 14.0 | 0.00 | 0.00 | 0.00 | 31 | 1014.7 |
| 20260503202836 | 62 | 286 | 7.0 | 12.0 | 0.00 | 0.00 | 0.00 | 30 | 1014.9 |
| 20260503202321 | 62 | 355 | 2.0 | 10.0 | 0.00 | 0.00 | 0.00 | 31 | 1014.8 |
| 20260503201827 | 61 | 355 | 3.0 | 12.0 | 0.00 | 0.00 | 0.00 | 33 | 1014.9 |
| 20260503201354 | 61 | 360 | 4.0 | 12.0 | 0.00 | 0.00 | 0.00 | 34 | 1014.9 |
| 20260503200858 | 61 | 360 | 3.0 | 13.0 | 0.00 | 0.00 | 0.00 | 34 | 1015.0 |
| 20260503200324 | 61 | 282 | 4.0 | 18.0 | 0.00 | 0.00 | 0.00 | 34 | 1015.0 |
| 20260503195840 | 61 | 276 | 6.0 | 18.0 | 0.00 | 0.00 | 0.00 | 32 | 1015.2 |
| 20260503195324 | 61 | 291 | 6.0 | 17.0 | 0.00 | 0.00 | 0.00 | 32 | 1015.2 |
| 20260503194828 | 60 | 38 | 1.0 | 17.0 | 0.00 | 0.00 | 0.00 | 35 | 1015.2 |
| 20260503194353 | 60 | 268 | 7.0 | 15.0 | 0.00 | 0.00 | 0.00 | 31 | 1015.4 |
| 20260503193837 | 59 | 247 | 5.0 | 15.0 | 0.00 | 0.00 | 0.00 | 35 | 1015.3 |
| 20260503193320 | 59 | 335 | 6.0 | 15.0 | 0.00 | 0.00 | 0.00 | 36 | 1015.6 |
| 20260503192846 | 59 | 267 | 7.0 | 15.0 | 0.00 | 0.00 | 0.00 | 35 | 1015.6 |
| 20260503192351 | 59 | 312 | 6.0 | 15.0 | 0.00 | 0.00 | 0.00 | 35 | 1015.6 |
| 20260503191819 | 59 | 297 | 4.0 | 13.0 | 0.00 | 0.00 | 0.00 | 38 | 1015.7 |
| 20260503191325 | 59 | 297 | 0.0 | 12.0 | 0.00 | 0.00 | 0.00 | 42 | 1015.7 |
| 20260503190831 | 59 | 284 | 5.0 | 21.0 | 0.00 | 0.00 | 0.00 | 37 | 1015.8 |
| 20260503190337 | 59 | 323 | 5.0 | 21.0 | 0.00 | 0.00 | 0.00 | 35 | 1015.6 |
| 20260503185833 | 59 | 236 | 5.0 | 16.0 | 0.00 | 0.00 | 0.00 | 34 | 1015.8 |
| 20260503185340 | 58 | 250 | 6.0 | 16.0 | 0.00 | 0.00 | 0.00 | 36 | 1015.8 |
| 20260503184826 | 58 | 239 | 5.0 | 16.0 | 0.00 | 0.00 | 0.00 | 39 | 1015.8 |
| 20260503184332 | 58 | 279 | 7.0 | 14.0 | 0.00 | 0.00 | 0.00 | 37 | 1016.0 |
| 20260503183858 | 58 | 239 | 6.0 | 14.0 | 0.00 | 0.00 | 0.00 | 39 | 1016.3 |
| 20260503183323 | 57 | 279 | 6.0 | 14.0 | 0.00 | 0.00 | 0.00 | 37 | 1016.1 |
| 20260503182827 | 57 | 26 | 4.0 | 11.0 | 0.00 | 0.00 | 0.00 | 39 | 1016.1 |
| 20260503182332 | 57 | 269 | 4.0 | 15.0 | 0.00 | 0.00 | 0.00 | 40 | 1016.2 |
| 20260503181821 | 57 | 277 | 7.0 | 16.0 | 0.00 | 0.00 | 0.00 | 39 | 1016.1 |
| 20260503181328 | 57 | 303 | 9.0 | 16.0 | 0.00 | 0.00 | 0.00 | 35 | 1016.1 |
| 20260503180835 | 57 | 304 | 4.0 | 12.0 | 0.00 | 0.00 | 0.00 | 40 | 1016.2 |
| 20260503180341 | 57 | 265 | 3.0 | 12.0 | 0.00 | 0.00 | 0.00 | 41 | 1016.2 |
| 20260503175836 | 58 | 315 | 6.0 | 13.0 | 0.00 | 0.00 | 0.00 | 42 | 1016.3 |
| 20260503175322 | 57 | 355 | 4.0 | 17.0 | 0.00 | 0.00 | 0.00 | 42 | 1016.2 |
| 20260503174829 | 57 | 273 | 8.0 | 17.0 | 0.00 | 0.00 | 0.00 | 41 | 1016.2 |
| 20260503174335 | 57 | 13 | 5.0 | 17.0 | 0.00 | 0.00 | 0.00 | 45 | 1016.2 |
| 20260503173841 | 57 | 333 | 6.0 | 17.0 | 0.00 | 0.00 | 0.00 | 42 | 1016.4 |
| 20260503173327 | 57 | 360 | 3.0 | 12.0 | 0.00 | 0.00 | 0.00 | 39 | 1016.3 |
| 20260503172832 | 56 | 360 | 3.0 | 13.0 | 0.00 | 0.00 | 0.00 | 42 | 1016.3 |
| 20260503172321 | 56 | 281 | 6.0 | 16.0 | 0.00 | 0.00 | 0.00 | 43 | 1016.4 |
| 20260503171828 | 56 | 5 | 4.0 | 16.0 | 0.00 | 0.00 | 0.00 | 46 | 1016.5 |
| 20260503171333 | 56 | 349 | 5.0 | 15.0 | 0.00 | 0.00 | 0.00 | 40 | 1016.6 |
| 20260503170838 | 56 | 344 | 5.0 | 11.0 | 0.00 | 0.00 | 0.00 | 43 | 1016.7 |
| 20260503170325 | 56 | 9 | 5.0 | 11.0 | 0.00 | 0.00 | 0.00 | 44 | 1016.7 |
| 20260503150845 | 51 | 360 | 5.0 | 17.0 | 0.00 | 0.00 | 0.00 | 48 | 1017.2 |
| 20260503150351 | 50 | 22 | 6.0 | 18.0 | 0.00 | 0.00 | 0.00 | 48 | 1017.4 |
| 20260503131336 | 46 | 9 | 6.0 | 14.0 | 0.00 | 0.00 | 0.00 | 54 | 1017.4 |
| 20260503130823 | 46 | 289 | 5.0 | 13.0 | 0.00 | 0.00 | 0.00 | 57 | 1017.4 |
| 20260503130329 | 45 | 309 | 4.0 | 13.0 | 0.00 | 0.00 | 0.00 | 57 | 1017.4 |
| 20260503110325 | 40 | 282 | 4.0 | 8.0 | 0.00 | 0.00 | 0.00 | 72 | 1016.4 |